BEIDOU IGSO 4

Last updated on Mon Apr 01 2019 03:15:19 GMT+0000 (Coordinated Universal Time)

1 37763U 11038A 19090.68717382 -.00000123 00000-0 10000-3 0 9991 2 37763 54.4402 189.5890 0059412 221.8078 119.9521 1.00263653 28224

Satellite not in orbit

BEIDOU IGSO 4